Time,TemperatureF,DewpointF,PressureIn,WindDirection,WindDirectionDegrees,WindSpeedMPH,WindSpeedGustMPH,Humidity,HourlyPrecipIn,Conditions,Clouds,dailyrainin,SoftwareType,DateUTC
2013-02-11 02:14:00,19.0,1.6,29.99,West,270,0.0,0.0,46,0.00,,,0.00,Weather View 32 v70,2013-02-11 07:14:00,
2013-02-11 02:24:00,19.0,2.5,29.98,West,270,0.0,0.0,48,0.00,,,0.00,Weather View 32 v70,2013-02-11 07:24:00,
2013-02-11 02:29:00,19.0,3.0,29.98,West,270,1.0,2.0,49,0.00,,,0.00,Weather View 32 v70,2013-02-11 07:29:00,
2013-02-11 02:44:00,19.0,3.0,29.97,West,270,0.0,2.0,49,0.00,,,0.00,Weather View 32 v70,2013-02-11 07:44:00,
2013-02-11 02:49:00,18.0,1.6,29.97,West,270,0.0,2.0,48,0.00,,,0.00,Weather View 32 v70,2013-02-11 07:49:00,
2013-02-11 02:54:00,18.0,2.5,29.97,West,270,0.0,2.0,50,0.00,,,0.00,Weather View 32 v70,2013-02-11 07:54:00,
2013-02-11 03:04:00,18.0,3.8,29.98,West,270,0.0,2.0,53,0.00,,,0.00,Weather View 32 v70,2013-02-11 08:04:00,
2013-02-11 03:09:00,19.0,4.3,29.98,West,270,1.0,2.0,52,0.00,,,0.00,Weather View 32 v70,2013-02-11 08:09:00,
2013-02-11 03:14:00,19.0,5.1,29.97,West,270,0.0,2.0,54,0.00,,,0.00,Weather View 32 v70,2013-02-11 08:14:00,
2013-02-11 03:19:00,19.0,4.3,29.97,West,270,0.0,2.0,52,0.00,,,0.00,Weather View 32 v70,2013-02-11 08:19:00,
2013-02-11 03:24:00,18.0,3.3,29.97,West,270,0.0,2.0,52,0.00,,,0.00,Weather View 32 v70,2013-02-11 08:24:00,
2013-02-11 03:29:00,18.0,3.3,29.97,West,270,0.0,2.0,52,0.00,,,0.00,Weather View 32 v70,2013-02-11 08:29:00,
2013-02-11 03:39:00,18.0,4.2,29.97,West,270,0.0,2.0,54,0.00,,,0.00,Weather View 32 v70,2013-02-11 08:39:00,
2013-02-11 03:44:00,18.0,3.3,29.96,West,270,0.0,2.0,52,0.00,,,0.00,Weather View 32 v70,2013-02-11 08:44:00,
2013-02-11 03:54:00,18.0,3.3,29.96,West,270,0.0,2.0,52,0.00,,,0.00,Weather View 32 v70,2013-02-11 08:54:00,
2013-02-11 03:59:00,18.0,3.8,29.96,West,270,0.0,2.0,53,0.00,,,0.00,Weather View 32 v70,2013-02-11 08:59:00,
2013-02-11 04:04:00,18.0,3.3,29.96,West,270,0.0,2.0,52,0.00,,,0.00,Weather View 32 v70,2013-02-11 09:04:00,
2013-02-11 04:14:00,18.0,6.1,29.96,West,270,0.0,0.0,59,0.00,,,0.00,Weather View 32 v70,2013-02-11 09:14:00,
2013-02-11 04:19:00,18.0,3.8,29.96,West,270,0.0,0.0,53,0.00,,,0.00,Weather View 32 v70,2013-02-11 09:19:00,
2013-02-11 04:24:00,18.0,4.2,29.96,West,270,0.0,0.0,54,0.00,,,0.00,Weather View 32 v70,2013-02-11 09:24:00,
2013-02-11 04:29:00,18.0,4.9,29.96,West,270,0.0,0.0,56,0.00,,,0.00,Weather View 32 v70,2013-02-11 09:29:00,
2013-02-11 04:34:00,18.0,5.7,29.95,West,270,0.0,0.0,58,0.00,,,0.00,Weather View 32 v70,2013-02-11 09:34:00,
2013-02-11 04:39:00,18.0,5.3,29.95,West,270,0.0,0.0,57,0.00,,,0.00,Weather View 32 v70,2013-02-11 09:39:00,
2013-02-11 04:44:00,18.0,4.9,29.94,West,270,0.0,0.0,56,0.00,,,0.00,Weather View 32 v70,2013-02-11 09:44:00,
2013-02-11 04:49:00,18.0,4.6,29.94,SE,135,0.0,2.0,55,0.00,,,0.00,Weather View 32 v70,2013-02-11 09:49:00,
2013-02-11 04:54:00,19.0,5.1,29.94,South,180,1.0,3.0,54,0.00,,,0.00,Weather View 32 v70,2013-02-11 09:54:00,
2013-02-11 05:04:00,19.0,5.1,29.94,South,180,2.0,4.0,54,0.00,,,0.00,Weather View 32 v70,2013-02-11 10:04:00,
2013-02-11 05:09:00,19.0,5.5,29.93,WSW,247,1.0,4.0,55,0.00,,,0.00,Weather View 32 v70,2013-02-11 10:09:00,
2013-02-11 05:14:00,19.0,5.9,29.93,WSW,247,1.0,4.0,56,0.00,,,0.00,Weather View 32 v70,2013-02-11 10:14:00,
2013-02-11 05:19:00,19.0,5.1,29.93,West,270,0.0,4.0,54,0.00,,,0.00,Weather View 32 v70,2013-02-11 10:19:00,
2013-02-11 05:24:00,19.0,5.1,29.93,ESE,112,0.0,4.0,54,0.00,,,0.00,Weather View 32 v70,2013-02-11 10:24:00,
2013-02-11 05:29:00,20.0,4.8,29.93,ESE,112,3.0,4.0,51,0.00,,,0.00,Weather View 32 v70,2013-02-11 10:29:00,
2013-02-11 05:34:00,20.0,4.3,29.92,SE,135,0.0,4.0,50,0.00,,,0.00,Weather View 32 v70,2013-02-11 10:34:00,
2013-02-11 05:39:00,20.0,4.3,29.92,SE,135,2.0,4.0,50,0.00,,,0.00,Weather View 32 v70,2013-02-11 10:39:00,
2013-02-11 05:44:00,20.0,4.8,29.93,ESE,112,0.0,4.0,51,0.00,,,0.00,Weather View 32 v70,2013-02-11 10:44:00,
2013-02-11 05:49:00,20.0,5.2,29.93,NW,315,0.0,5.0,52,0.00,,,0.00,Weather View 32 v70,2013-02-11 10:49:00,
2013-02-11 06:04:00,21.0,6.1,29.93,NW,315,6.0,7.0,52,0.00,,,0.00,Weather View 32 v70,2013-02-11 11:04:00,
2013-02-11 06:09:00,21.0,6.1,29.93,North,360,3.0,7.0,52,0.00,,,0.00,Weather View 32 v70,2013-02-11 11:09:00,
2013-02-11 06:14:00,21.0,6.1,29.93,WNW,292,2.0,7.0,52,0.00,,,0.00,Weather View 32 v70,2013-02-11 11:14:00,
2013-02-11 06:19:00,21.0,6.5,29.93,North,360,0.0,7.0,53,0.00,,,0.00,Weather View 32 v70,2013-02-11 11:19:00,
2013-02-11 06:24:00,21.0,6.1,29.92,South,180,1.0,7.0,52,0.00,,,0.00,Weather View 32 v70,2013-02-11 11:24:00,
2013-02-11 06:29:00,21.0,6.5,29.92,NW,315,2.0,7.0,53,0.00,,,0.00,Weather View 32 v70,2013-02-11 11:29:00,
2013-02-11 06:34:00,21.0,6.5,29.91,NW,315,2.0,7.0,53,0.00,,,0.00,Weather View 32 v70,2013-02-11 11:34:00,
2013-02-11 06:54:00,21.0,7.0,29.91,NW,315,1.0,7.0,54,0.00,,,0.00,Weather View 32 v70,2013-02-11 11:54:00,
2013-02-11 07:05:00,21.0,7.0,29.90,NW,315,4.0,7.0,54,0.00,,,0.00,Weather View 32 v70,2013-02-11 12:05:00,
2013-02-11 07:19:00,21.0,7.4,29.90,WNW,292,2.0,5.0,55,0.00,,,0.00,Weather View 32 v70,2013-02-11 12:19:00,
2013-02-11 07:24:00,21.0,7.4,29.90,NW,315,1.0,5.0,55,0.00,,,0.00,Weather View 32 v70,2013-02-11 12:24:00,
2013-02-11 07:29:00,21.0,7.0,29.90,SE,135,3.0,5.0,54,0.00,,,0.00,Weather View 32 v70,2013-02-11 12:29:00,
2013-02-11 07:34:00,21.0,7.4,29.88,SW,225,1.0,5.0,55,0.00,,,0.00,Weather View 32 v70,2013-02-11 12:34:00,
2013-02-11 07:44:00,21.0,7.0,29.88,South,180,1.0,5.0,54,0.00,,,0.00,Weather View 32 v70,2013-02-11 12:44:00,
2013-02-11 07:54:00,22.0,8.3,29.88,SE,135,1.0,5.0,55,0.00,,,0.00,Weather View 32 v70,2013-02-11 12:54:00,
2013-02-11 07:59:00,22.0,7.9,29.88,SSE,157,3.0,5.0,54,0.00,,,0.00,Weather View 32 v70,2013-02-11 12:59:00,
2013-02-11 09:59:00,23.0,20.0,29.79,SE,135,0.0,0.0,88,0.00,,,0.00,Weather View 32 v70,2013-02-11 14:59:00,
2013-02-11 10:29:00,24.0,22.5,29.76,SE,135,0.0,0.0,94,0.00,,,0.00,Weather View 32 v70,2013-02-11 15:29:00,
2013-02-11 10:34:00,24.0,22.5,29.76,SE,135,0.0,0.0,94,0.00,,,0.00,Weather View 32 v70,2013-02-11 15:34:00,
2013-02-11 10:39:00,25.0,23.5,29.76,SE,135,0.0,0.0,94,0.00,,,0.00,Weather View 32 v70,2013-02-11 15:39:00,
2013-02-11 10:44:00,25.0,23.5,29.74,SE,135,1.0,1.0,94,0.00,,,0.00,Weather View 32 v70,2013-02-11 15:44:00,
2013-02-11 11:24:00,26.0,24.5,29.69,SE,135,1.0,2.0,94,0.00,,,0.00,Weather View 32 v70,2013-02-11 16:24:00,
2013-02-11 11:44:00,27.0,25.5,29.66,SE,135,1.0,2.0,94,0.00,,,0.00,Weather View 32 v70,2013-02-11 16:44:00,
2013-02-11 14:49:00,30.0,28.7,29.48,NW,315,5.0,7.0,95,0.00,,,0.00,Weather View 32 v70,2013-02-11 19:49:00,
2013-02-11 15:29:00,30.0,28.7,29.46,NW,315,1.0,7.0,95,0.00,,,0.00,Weather View 32 v70,2013-02-11 20:29:00,
2013-02-11 15:34:00,29.0,27.5,29.45,NW,315,3.0,7.0,94,0.00,,,0.00,Weather View 32 v70,2013-02-11 20:34:00,
2013-02-11 15:39:00,29.0,27.5,29.45,NW,315,5.0,7.0,94,0.00,,,0.00,Weather View 32 v70,2013-02-11 20:39:00,
2013-02-11 15:44:00,29.0,27.5,29.46,NW,315,2.0,7.0,94,0.00,,,0.00,Weather View 32 v70,2013-02-11 20:44:00,
2013-02-11 15:49:00,29.0,27.5,29.46,NW,315,4.0,7.0,94,0.00,,,0.00,Weather View 32 v70,2013-02-11 20:49:00,
2013-02-11 15:54:00,29.0,27.5,29.45,NW,315,1.0,7.0,94,0.00,,,0.00,Weather View 32 v70,2013-02-11 20:54:00,
2013-02-11 15:59:00,29.0,27.5,29.45,NW,315,0.0,7.0,94,0.00,,,0.00,Weather View 32 v70,2013-02-11 20:59:00,
2013-02-11 17:24:00,30.0,28.7,29.39,NW,315,1.0,2.0,95,0.00,,,0.00,Weather View 32 v70,2013-02-11 22:24:00,
2013-02-11 17:29:00,30.0,28.7,29.39,NW,315,2.0,2.0,95,0.00,,,0.00,Weather View 32 v70,2013-02-11 22:29:00,
2013-02-11 17:34:00,30.0,28.7,29.38,NW,315,0.0,2.0,95,0.00,,,0.00,Weather View 32 v70,2013-02-11 22:34:00,
2013-02-11 17:39:00,30.0,28.7,29.38,NW,315,0.0,2.0,95,0.00,,,0.00,Weather View 32 v70,2013-02-11 22:39:00,
2013-02-11 17:44:00,30.0,28.7,29.37,NW,315,0.0,2.0,95,0.00,,,0.00,Weather View 32 v70,2013-02-11 22:44:00,